Date,TemperatureHighF,TemperatureAvgF,TemperatureLowF,DewpointHighF,DewpointAvgF,DewpointLowF,HumidityHigh,HumidityAvg,HumidityLow,PressureMaxIn,PressureMinIn,WindSpeedMaxMPH,WindSpeedAvgMPH,GustSpeedMaxMPH,PrecipitationSumIn
2013-1-1,34,32,26,33,30,21,95,92,81,30.16,30.05,8,2,10,0.00
2013-1-2,31,24,17,24,17,9,95,77,52,30.27,30.15,5,0,8,0.00
2013-1-3,35,25,16,24,16,9,81,70,59,30.35,30.22,6,1,15,0.00
2013-1-4,36,30,0,26,23,-5,82,73,58,30.37,30.32,9,2,17,0.00
2013-1-5,40,31,23,33,26,20,95,81,63,30.38,30.19,6,1,8,0.14
2013-1-6,38,33,8,35,29,4,88,84,79,30.38,30.06,7,2,12,0.19
2013-1-7,38,30,22,31,26,21,95,84,66,30.50,30.28,8,1,10,0.01
2013-1-8,48,35,24,37,29,23,95,80,57,30.35,30.24,8,1,12,0.20
2013-1-9,52,44,37,49,38,-100,95,80,59,30.54,30.25,7,2,8,0.21
2013-1-10,43,38,32,42,35,-100,95,92,78,30.55,30.13,6,2,8,0.08
2013-1-11,59,52,43,57,45,-100,95,85,70,30.13,29.92,10,4,15,0.47
2013-1-12,64,58,50,63,57,49,95,95,93,30.06,29.82,9,3,16,0.03
2013-1-13,64,53,33,63,52,31,95,95,93,30.19,29.75,13,6,20,0.89
2013-1-14,33,26,23,32,24,22,95,94,88,30.48,30.19,9,3,12,0.10
2013-1-15,32,27,22,28,24,21,95,90,78,30.40,30.11,8,4,13,0.00
2013-1-16,37,32,30,32,28,26,93,86,70,30.13,30.02,7,1,9,0.00
2013-1-17,42,33,28,32,27,21,95,79,55,30.42,30.13,12,3,15,0.00
2013-1-18,39,30,19,26,20,14,84,67,48,30.57,30.27,10,3,16,0.00
2013-1-19,54,44,36,28,25,22,67,50,29,30.27,29.96,10,7,21,0.00
2013-1-20,46,34,26,34,17,8,67,49,36,30.28,29.98,9,3,15,0.00
2013-1-21,27,22,13,17,9,0,73,58,43,30.29,30.15,8,2,16,0.00
2013-1-22,19,13,6,2,0,-2,73,56,41,30.44,30.29,6,0,9,0.00
2013-1-23,25,19,11,11,5,1,66,56,47,30.40,30.14,6,0,8,0.00
2013-1-24,25,20,15,14,5,0,69,51,34,30.63,30.14,13,4,15,0.00
2013-1-25,28,24,21,21,15,7,85,69,52,30.48,30.09,6,1,10,0.00
2013-1-26,32,25,20,22,19,16,95,79,59,30.48,30.17,8,2,12,0.00
2013-1-27,39,30,20,38,24,16,95,80,61,30.48,30.21,6,1,7,0.25
2013-1-28,52,47,39,51,45,-100,95,94,95,30.22,30.09,9,6,17,0.37
2013-1-29,63,57,50,59,54,49,95,91,84,30.11,29.64,12,7,25,0.01
2013-1-30,66,52,32,59,50,28,95,91,73,29.64,29.33,14,8,20,0.95
2013-1-31,32,27,17,28,20,15,95,75,59,30.09,29.62,10,6,17,0.14
2013-2-1,18,12,6,15,6,1,95,77,63,30.47,30.09,9,2,23,0.00
2013-2-2,33,24,12,28,21,6,95,87,78,30.38,30.05,8,2,10,0.05
2013-2-3,28,23,18,26,19,15,92,85,73,30.17,29.99,7,1,9,0.02
2013-2-4,35,27,18,34,25,17,95,92,75,30.17,29.87,7,2,13,0.06
2013-2-5,38,34,28,35,32,27,95,91,81,30.07,29.90,8,1,10,0.13
2013-2-6,38,34,30,34,30,27,90,84,75,30.32,30.07,9,1,13,0.01
2013-2-7,56,41,30,39,33,28,95,77,47,30.26,29.87,6,1,9,0.00
2013-2-8,50,38,30,44,33,24,95,84,61,30.39,29.86,13,6,21,0.06
2013-2-9,41,32,24,25,21,18,84,65,42,30.48,30.28,7,1,9,0.01
2013-2-10,55,42,31,48,31,20,95,67,38,30.28,29.85,12,4,21,0.02
2013-2-11,52,46,37,51,35,26,95,66,43,30.11,29.83,16,6,35,0.01
2013-2-12,49,38,29,30,26,21,85,63,34,30.21,29.98,8,1,10,0.00
2013-2-13,39,33,30,34,29,-100,95,86,57,29.97,29.84,8,2,12,0.10
2013-2-14,52,40,31,42,34,30,95,80,49,30.06,29.89,10,5,16,0.03
2013-2-15,42,34,27,34,27,20,90,75,52,30.22,30.06,12,2,18,0.01
2013-2-16,28,24,20,22,16,9,95,73,49,30.21,30.11,10,3,15,0.00
2013-2-17,32,23,15,15,12,6,87,65,35,30.31,30.18,6,1,12,0.00
2013-2-18,53,49,46,41,37,33,81,63,46,29.85,29.80,17,11,26,0.10
2013-2-19,46,39,31,44,38,30,95,93,84,29.92,29.72,16,8,24,0.25
2013-2-22,44,37,32,42,36,31,95,94,85,30.06,29.94,8,2,15,0.27
2013-2-23,42,35,30,34,29,24,95,78,54,30.07,29.98,6,1,9,0.01
2013-2-24,41,33,25,26,24,22,88,72,53,30.21,30.01,8,1,12,0.00
2013-2-25,45,35,25,28,23,21,87,64,41,30.24,29.95,8,2,18,0.00
2013-2-26,47,41,35,46,36,23,95,85,57,29.96,29.43,8,4,13,0.93
2013-2-27,42,36,32,41,34,-100,95,94,93,29.79,29.57,8,5,14,0.03
2013-2-28,37,34,31,36,33,30,95,95,95,30.03,29.77,7,3,12,0.03
2013-3-1,38,34,30,37,32,28,95,95,94,30.11,30.00,8,3,12,0.07
2013-3-2,30,28,26,29,24,22,95,84,78,30.15,30.09,9,4,13,0.01
2013-3-3,32,28,25,24,20,17,85,71,58,30.16,30.12,9,2,13,0.00
2013-3-4,41,28,19,28,21,15,95,77,54,30.23,30.07,7,1,9,0.00
2013-3-5,39,37,31,38,31,25,95,81,58,30.07,29.66,8,2,12,0.28
2013-3-6,34,31,28,32,29,27,95,94,92,30.34,29.74,9,4,14,0.23
2013-3-7,38,33,30,36,31,27,95,89,78,30.46,30.32,5,0,7,0.08
2013-3-8,43,35,27,31,26,23,88,70,48,30.55,30.45,6,1,10,0.01
2013-3-9,58,43,30,35,30,24,90,64,37,30.47,30.11,7,1,9,0.00
2013-3-10,68,58,51,40,31,25,52,36,20,30.11,29.90,13,6,18,0.03
2013-3-11,56,48,37,52,46,34,95,91,53,29.94,29.70,12,5,20,1.23
2013-3-12,46,38,33,35,30,25,93,75,48,30.14,29.94,9,3,14,0.01
2013-3-13,35,30,26,32,24,19,95,80,61,30.40,30.09,12,3,18,0.01
2013-3-14,46,33,21,28,21,15,95,66,30,30.43,30.27,6,1,12,0.00
2013-3-15,56,42,29,39,33,26,95,74,47,30.26,29.86,5,1,8,0.00
2013-3-16,60,48,39,57,42,37,95,82,57,30.09,29.70,12,5,15,0.06
2013-3-17,39,36,34,38,33,30,95,89,78,30.22,30.06,8,4,13,0.11
2013-3-18,50,40,33,49,39,32,95,95,95,30.06,29.68,8,4,12,1.25
2013-3-19,44,36,27,38,23,11,95,64,28,30.20,29.91,10,4,24,0.01
2013-3-20,37,31,24,22,16,10,72,53,36,30.20,30.04,12,3,20,0.00
2013-3-21,35,26,19,14,11,8,75,55,39,30.11,30.02,12,2,14,0.00
2013-3-22,47,32,20,21,14,11,72,50,27,30.15,30.06,7,0,9,0.00
2013-3-23,52,41,32,25,20,14,59,45,28,30.14,29.96,6,1,9,0.01
2013-3-24,40,35,32,35,28,21,95,78,47,29.95,29.47,9,4,16,0.15
2013-3-25,35,32,29,34,31,28,95,95,95,30.03,29.49,8,2,12,0.25
2013-3-26,40,34,31,35,30,25,95,85,65,30.33,30.03,9,4,14,0.07
2013-3-27,43,36,28,33,27,23,93,69,48,30.40,30.31,8,1,12,0.01
2013-3-28,50,39,28,29,23,19,70,54,37,30.45,30.37,7,1,9,0.00
2013-3-29,58,43,29,35,27,24,87,56,29,30.41,30.28,6,0,8,0.00
2013-3-30,63,49,34,37,30,27,79,51,26,30.32,30.03,8,1,12,0.00
2013-3-31,59,51,46,51,41,-100,95,74,44,30.03,29.87,6,1,10,0.10
2013-4-1,49,43,37,40,26,15,78,54,29,30.21,29.88,12,3,16,0.01
2013-4-2,48,37,27,21,15,9,67,42,23,30.35,30.21,12,2,16,0.00
2013-4-3,50,38,27,17,13,9,58,37,22,30.50,30.34,10,2,14,0.00
2013-4-4,59,44,33,20,16,12,49,34,16,30.41,30.08,6,1,10,0.00
2013-4-5,62,49,33,30,24,18,65,39,18,30.22,30.06,10,3,15,0.00
2013-4-6,69,54,39,32,26,22,59,37,21,30.28,29.99,8,2,14,0.00
2013-4-7,75,64,57,55,39,31,90,41,28,30.09,29.94,9,4,13,0.23
2013-4-8,73,62,53,56,52,50,95,73,47,30.09,29.96,12,4,20,0.51
2013-4-9,81,69,58,56,51,47,76,56,34,30.13,30.00,14,4,24,0.00
2013-4-10,84,74,66,59,55,49,73,54,32,30.05,29.84,13,5,22,0.00
2013-4-11,72,64,59,66,60,54,95,87,53,29.88,29.61,9,3,12,1.22
2013-4-12,60,46,40,59,41,33,95,81,61,29.99,29.59,8,3,15,0.48
2013-4-13,60,46,35,40,32,-100,95,62,32,30.10,29.99,9,2,15,0.02
2013-4-14,74,56,41,43,38,32,84,54,25,30.11,29.93,7,1,12,0.00
2013-4-15,72,63,54,51,48,40,72,59,44,30.06,29.96,8,3,14,0.00
2013-4-16,79,65,57,61,57,50,95,78,49,30.26,30.01,12,4,20,0.43
2013-4-17,77,64,54,69,60,53,95,87,61,30.26,30.02,10,3,12,0.30
2013-4-18,82,72,62,62,55,45,93,62,32,30.03,29.66,15,8,23,0.01
2013-4-19,73,48,37,60,40,31,95,76,40,30.05,29.52,13,5,22,0.74
2013-4-20,52,42,34,38,30,23,95,66,36,30.45,30.05,9,3,14,0.01
2013-4-21,60,46,33,31,27,24,75,51,28,30.58,30.42,7,1,12,0.00
2013-4-22,74,55,39,37,31,26,63,42,22,30.43,30.18,6,0,12,0.00
2013-4-23,72,60,46,49,44,36,82,58,43,30.20,29.92,9,2,12,0.00
2013-4-24,65,50,39,54,44,36,95,79,54,30.28,29.83,10,4,18,0.70
2013-4-25,62,46,33,45,34,26,95,68,30,30.43,30.28,8,2,12,0.01
2013-4-26,65,51,35,40,31,26,93,50,23,30.51,30.39,6,0,10,0.00
2013-4-27,64,55,46,51,41,30,79,59,42,30.40,30.09,6,1,10,0.00
2013-4-28,68,60,54,63,54,-100,95,85,61,30.10,29.88,8,2,12,0.08
2013-4-29,68,60,55,62,55,51,95,83,61,30.06,29.94,5,0,6,0.01
2013-4-30,82,65,50,62,50,42,95,66,26,30.11,30.01,6,1,9,0.00
2013-5-1,87,71,56,57,50,44,88,53,23,30.22,30.11,5,0,7,0.00
2013-5-2,79,70,61,51,49,47,62,48,35,30.26,30.13,6,1,12,0.00
2013-5-3,78,69,61,55,49,35,75,52,32,30.13,29.98,7,2,15,0.00
2013-5-4,75,64,56,52,41,34,87,44,26,30.06,29.97,8,3,14,0.03
2013-5-5,56,53,50,54,52,49,95,94,88,30.04,29.95,8,2,12,1.57
2013-5-6,63,58,52,59,55,51,95,91,78,29.98,29.91,8,4,16,0.88
2013-5-7,74,62,56,62,56,49,95,80,43,30.01,29.94,7,2,9,0.04
2013-5-8,76,65,55,66,55,48,95,73,38,30.06,29.97,9,1,13,0.05
2013-5-9,83,68,57,63,54,44,95,65,27,30.06,29.96,5,0,8,0.01
2013-5-10,69,63,61,66,60,-100,95,92,67,29.99,29.84,6,1,7,1.84
2013-5-11,61,53,48,60,51,42,95,92,78,30.04,29.88,10,2,14,0.11
2013-5-12,58,48,41,43,33,-100,95,62,31,30.16,30.04,10,2,16,0.00
2013-5-13,64,52,39,40,30,23,81,47,22,30.21,30.13,12,2,18,0.00
2013-5-14,84,63,46,54,43,34,75,52,26,30.17,29.85,10,3,15,0.00
2013-5-15,90,76,66,57,52,44,70,47,22,29.94,29.85,8,3,14,0.00
2013-5-16,78,66,64,69,38,-100,95,72,46,30.01,29.88,5,1,7,0.25
2013-5-17,82,68,62,70,59,-100,95,86,44,30.08,30.00,6,1,8,0.20
2013-5-18,80,70,64,71,64,60,95,82,55,30.07,29.98,6,0,9,0.03
2013-5-19,87,74,64,71,63,58,95,73,38,30.02,29.91,5,0,7,0.01
2013-5-20,88,77,68,70,65,59,95,71,39,30.02,29.90,7,2,12,0.00
2013-5-21,87,75,67,66,61,55,84,65,36,30.00,29.81,8,3,12,0.01
2013-5-22,80,70,65,67,63,57,95,80,49,29.85,29.75,8,2,13,0.19
2013-5-23,69,63,53,65,57,-100,95,83,59,30.09,29.80,10,2,17,0.30
2013-5-24,67,57,49,50,41,34,87,60,32,30.33,30.09,10,4,18,0.01
2013-5-25,68,58,45,48,42,35,90,59,34,30.39,30.22,6,0,8,0.00
2013-5-26,74,63,55,51,48,44,85,60,35,30.31,30.18,5,0,8,0.00
2013-5-27,85,70,54,58,49,-100,93,55,24,30.19,29.94,9,2,17,0.34
2013-5-28,85,76,67,62,57,52,79,54,35,30.02,29.92,9,3,15,0.01
2013-5-29,90,77,67,62,56,48,72,50,25,30.08,29.97,8,2,12,0.00
2013-5-30,89,78,68,67,62,58,84,60,36,30.13,29.99,8,2,13,0.00
2013-5-31,83,73,69,70,65,61,95,78,52,30.05,29.92,9,3,17,0.65
2013-6-1,80,72,67,70,67,62,95,85,55,29.94,29.77,9,3,15,0.03
2013-6-2,78,70,65,67,59,-100,95,71,43,29.92,29.80,7,2,9,0.01
2013-6-3,72,64,55,58,50,47,81,63,42,30.03,29.91,8,3,12,0.00
2013-6-4,80,66,52,52,44,30,92,52,18,30.12,30.03,7,2,9,0.00
2013-6-5,85,70,57,59,50,41,73,51,32,30.06,29.84,5,1,7,0.00
2013-6-6,74,68,64,71,64,59,95,87,66,29.85,29.75,6,1,8,0.71
2013-6-7,76,67,59,63,58,53,95,77,48,29.84,29.77,7,2,10,0.01
2013-6-8,76,67,59,61,57,54,88,73,55,29.99,29.84,8,1,9,0.00
2013-6-9,83,72,64,70,62,54,95,75,39,30.03,29.86,6,1,10,0.33
2013-6-10,77,70,65,71,65,61,95,85,57,29.88,29.76,6,1,8,0.52
2013-6-11,89,74,62,71,62,55,95,70,33,29.94,29.83,7,1,9,0.03
2013-6-12,93,80,70,72,67,62,90,66,38,29.90,29.71,7,1,10,0.00
2013-6-13,91,75,66,69,61,49,95,65,39,29.89,29.57,12,5,21,0.48
2013-6-14,81,69,58,60,53,49,87,59,36,30.01,29.87,7,2,14,0.03
2013-6-15,88,74,61,64,58,54,95,60,31,30.08,29.91,6,1,9,0.00
2013-6-16,77,72,69,70,65,59,92,78,61,29.98,29.90,5,0,7,0.04
2013-6-17,90,76,67,73,66,58,95,74,37,29.93,29.84,8,0,12,0.01
2013-6-18,88,71,66,66,63,58,95,78,36,29.93,29.80,5,0,8,0.63
2013-6-19,83,70,59,65,56,47,95,65,29,30.06,29.87,7,1,12,0.09
2013-6-20,89,72,61,63,57,51,93,64,27,30.15,30.06,6,0,7,0.00
2013-6-22,92,81,70,68,66,62,95,61,39,30.12,30.01,6,1,10,0.09
2013-6-23,89,75,67,74,66,59,95,77,38,30.09,30.01,7,1,12,0.09
2013-6-24,89,76,68,72,66,62,95,75,42,30.09,29.98,3,0,7,0.00
2013-6-25,94,77,68,74,68,64,95,76,38,30.01,29.84,5,1,7,0.00
2013-6-26,86,73,67,74,68,64,95,86,58,29.90,29.71,6,1,9,2.33
2013-6-27,84,74,67,76,68,64,95,83,54,29.75,29.65,6,1,9,0.03
2013-6-28,85,74,69,70,63,53,95,72,34,29.65,29.53,13,2,21,0.03
2013-6-29,78,70,63,68,64,59,95,80,54,29.58,29.50,6,0,9,0.03
2013-6-30,80,70,65,71,65,58,95,84,50,29.75,29.56,7,1,9,0.23
2013-7-1,78,68,64,68,64,59,95,88,56,29.83,29.73,8,3,13,0.07
2013-7-2,84,74,66,70,65,60,95,77,46,29.94,29.83,6,1,8,0.02
2013-7-3,82,75,67,70,65,61,95,74,50,30.03,29.93,7,1,9,0.00
2013-7-4,73,70,69,69,68,67,95,94,81,30.07,29.98,5,0,6,0.71
2013-7-5,78,71,66,73,68,65,95,90,73,30.06,29.99,5,0,8,0.12
2013-7-6,73,70,68,71,69,67,95,95,95,30.04,29.97,5,0,7,0.90
2013-7-7,83,73,65,74,66,63,95,82,54,30.03,29.95,3,0,7,0.01
2013-7-8,88,75,68,72,68,66,95,81,48,30.05,29.97,3,0,7,0.00
2013-7-9,90,80,73,75,70,67,95,73,50,30.00,29.90,5,0,7,0.01
2013-7-10,89,78,75,79,68,-100,95,75,58,29.92,29.76,6,1,9,0.06
2013-7-11,83,74,68,71,62,52,95,70,42,29.93,29.83,9,3,13,0.03
2013-7-12,81,70,62,60,54,49,82,60,34,30.00,29.93,6,1,13,0.00
2013-7-13,88,77,66,62,60,56,84,58,34,30.03,29.95,8,2,13,0.00
2013-7-14,94,80,70,70,65,61,85,63,37,30.12,30.02,5,1,8,0.00
2013-7-15,96,80,73,71,68,60,88,70,32,30.21,30.12,5,1,7,0.00
2013-7-16,92,79,73,74,68,63,93,70,38,30.24,30.17,2,0,5,0.00
2013-7-17,92,83,75,73,69,65,87,65,42,30.23,30.10,5,1,8,0.00
2013-7-18,96,83,75,73,68,63,85,64,35,30.12,29.93,2,0,5,0.00
2013-7-19,92,83,75,76,71,68,95,69,48,29.96,29.80,5,1,7,0.02
2013-7-20,92,78,72,73,67,-100,90,73,43,29.83,29.76,6,1,8,0.07
2013-7-21,91,78,70,71,67,62,95,73,38,29.86,29.76,5,0,8,0.05
2013-7-22,82,75,70,76,69,66,95,84,63,29.80,29.66,7,1,9,0.25
2013-7-23,90,79,69,76,69,63,95,75,48,29.72,29.63,8,1,12,0.03
2013-7-24,77,69,59,63,57,53,88,66,46,29.88,29.71,8,4,13,0.01
2013-7-25,80,69,58,58,53,49,87,60,35,29.97,29.88,6,1,7,0.00
2013-7-26,85,72,59,62,55,51,93,60,32,29.98,29.86,6,0,7,0.00
2013-7-27,77,70,65,70,61,51,95,76,43,29.86,29.72,5,1,8,0.19
2013-7-28,76,66,54,54,49,45,90,59,34,29.94,29.79,7,1,9,0.01
2013-7-29,80,67,56,58,53,48,92,64,33,30.07,29.94,6,0,9,0.00
2013-7-30,80,70,60,67,58,53,95,67,42,30.11,30.00,5,0,6,0.00
2013-7-31,78,72,66,69,65,61,95,80,62,30.00,29.83,7,1,9,0.04
2013-8-1,80,72,68,68,63,49,95,76,36,29.88,29.80,6,1,8,0.01
2013-8-2,87,72,61,63,58,52,87,63,34,29.90,29.84,6,0,7,0.00
2013-8-3,80,74,68,72,64,56,95,73,52,29.92,29.85,7,2,10,0.31
2013-8-4,79,70,60,59,52,46,78,57,32,30.01,29.92,8,3,12,0.01
2013-8-5,85,68,59,62,54,48,93,63,29,30.00,29.85,5,1,8,0.00
2013-8-6,85,75,68,67,59,53,75,57,46,29.86,29.80,5,1,8,0.00
2013-8-7,88,78,71,75,69,66,95,75,49,29.83,29.75,5,0,9,0.00
2013-8-8,83,76,70,76,72,68,95,89,63,29.83,29.76,6,1,8,2.72
2013-8-9,80,74,69,77,69,65,95,86,65,29.91,29.79,8,1,12,1.80
2013-8-10,87,77,70,74,68,63,95,76,47,29.99,29.91,3,0,6,0.00
2013-8-11,86,76,71,75,67,59,95,75,45,29.98,29.92,6,0,9,0.00
2013-8-17,84,69,60,58,54,51,84,63,32,30.05,29.97,7,1,7,0.00
2013-8-18,84,69,62,65,54,-100,95,66,34,30.02,29.99,2,0,9,0.00
2013-8-19,85,65,62,69,37,-100,95,66,33,30.02,30.02,0,0,6,0.00
2013-8-20,87,73,64,68,57,-100,95,66,34,30.02,30.02,2,0,5,0.00
2013-8-21,89,77,69,71,65,60,90,69,43,30.02,30.02,6,0,6,0.01
2013-8-22,88,75,68,72,67,62,95,78,42,30.02,30.02,6,0,16,0.06
2013-8-23,83,73,67,70,65,58,95,78,46,30.02,30.02,6,1,9,0.07
2013-8-24,71,70,69,61,61,59,75,73,65,30.02,30.02,1,0,3,0.02